Regional Weather Roundup
Issued by NWS

Home | Current Version | Previous Version | Graphics & Text | Print | Product List | Glossary On
Versions: 1 2 3 4 5 6 7 8 9 10 11 12 13 14 15 16 17 18 19 20 21 22 23 24 25 26 27 28 29 30 31 32 33 34 35 36 37 38 39 40 41 42 43 44 45 46 47 48 49 50
000
ASUS43 KDMX 231901
RWRIA

WEATHER ROUNDUP FOR IOWA
NATIONAL WEATHER SERVICE DES MOINES IA
200 PM CDT THU MAR 23 2017

NOTE: "FAIR" INDICATES FEW OR NO CLOUDS BELOW 12,000 FEET WITH NO
SIGNIFICANT WEATHER AND/OR OBSTRUCTIONS TO VISIBILITY.

* - THESE STATIONS ARE NOT NWS STATIONS...THUS NOT UNDER NWS
QUALITY CONTROL.  THEY ALSO DO NOT REPORT WEATHER SUCH
AS PRECIPITATION OR FOG.

IAZ001>003-012>014-020>022-031>034-043>046-232000-
   NORTHWEST IOWA

CITY           SKY/WX    TMP DP  RH WIND       PRES   REMARKS
CHEROKEE *     CLOUDY    47  37  67 SE13      29.82F
ORANGE CITY *  PTSUNNY   48  41  76 SE13G18   29.77F
SHELDON *      CLOUDY    43  43 100 SE25G32   29.76F
SIOUX CITY     CLOUDY    55  39  54 S17       29.79F
SPENCER        CLOUDY    41  36  82 SE24G30   29.83F
STORM LAKE *   CLOUDY    46  36  66 SE15      29.83F
$$

IAZ055>058-069>071-079>083-090>094-232000-
   SOUTHWEST IOWA

CITY           SKY/WX    TMP DP  RH WIND       PRES   REMARKS
LAMONI         SUNNY     60  37  42 SE17G30   29.91F
RED OAK *      MOSUNNY   64  41  42 S22G32    29.81F
SHENANDOAH *   SUNNY     72  46  40 S23G32    29.79F
$$

IAZ047>049-059>061-072>074-084-232000-
   CENTRAL IOWA

CITY           SKY/WX    TMP DP  RH WIND       PRES   REMARKS
AMES           CLOUDY    48  34  58 SE25G32   29.93F
GRINNELL*      CLOUDY    41  33  71 SE18      30.02F
MARSHALLTOWN   CLOUDY    42  31  64 SE22G29   29.99F
NEWTON *       PTSUNNY   46  34  61 SE24G30   29.97F
PELLA *        SUNNY     46  33  60 SE17G28   30.00F
PERRY *        PTSUNNY   53  33  46 SE21G32   29.89F
$$

IAZ004>006-015-016-023>025-035-036-232000-
   NORTH CENTRAL IOWA

CITY           SKY/WX    TMP DP  RH WIND       PRES   REMARKS
ESTHERVILLE    CLOUDY    37  33  85 SE25G33   29.84F WCI  25
MASON CITY     CLOUDY    38  27  64 SE16      30.02S WCI  29
FOREST CITY *  RAIN      36  30  80 SE16G26   29.94F WCI  26
IOWA FALLS *   CLOUDY    42  31  65 SE18G26   29.97F
$$

IAZ007>011-017>019-026>030-037>042-050>054-066-232000-
   NORTHEAST IOWA

CITY           SKY/WX    TMP DP  RH WIND       PRES   REMARKS
CEDAR RAPIDS   CLOUDY    38  36  92 SE18      30.08F FOG     WCI  28
CHARLES CITY * CLOUDY    39  30  70 SE23G30   30.01F WCI  29
CLINTON *      CLOUDY    41  27  56 SE17      30.17F
DUBUQUE        CLOUDY    41  27  57 S20G26    30.13F
MONTICELLO *   CLOUDY    41  32  70 S22G29    30.12F
OELWEIN *      CLOUDY    41  32  70 SE23      30.07F
$$

IAZ064-065-067-068-078-232000-
   EAST CENTRAL IOWA

CITY           SKY/WX    TMP DP  RH WIND       PRES   REMARKS
DAVENPORT      CLOUDY    42  28  57 SE21      30.15F
IOWA CITY      CLOUDY    40  35  83 SE13G23   30.12F WCI  32
MUSCATINE *    CLOUDY    41  36  81 SE16G25   30.14F
QUAD CITIES    CLOUDY    43  29  57 SE16G22   30.16F
$$

IAZ062-063-075>077-085>089-095>099-232000-
   SOUTHEAST IOWA

CITY           SKY/WX    TMP DP  RH WIND       PRES   REMARKS
BURLINGTON     CLOUDY    39  39 100 SE15      30.13F WCI  31
FORT MADISON * CLOUDY    43  39  87 SE14      30.12F
OTTUMWA        CLOUDY    46  35  65 SE18      30.03F
$$

ABBREVIATIONS USED IN REMARKS
   TC - TEMPERATURES IN CELSIUS
  WCI - WIND CHILL INDEX
   HX - HEAT INDEX
  VSB - VISIBILITY
$$




USA.gov is the U.S. government's official web portal to all federal, state and local government web resources and services.